カタリナ彗星

C/2014 W6 ( Catalina )

English version
Home page
Updated on June 11, 2016

---------------------------------------------------------------------

・ プロフィール

発見日 2014年11月20日
発見光度 18.3等
発見者 R. A. Kowalski and R. G. Matheny (Catalina Sky Survey)

・ 写真集

・ 軌道要素

Epoch 2015 Apr. 8.0 TT = JDT 2457120.5
T 2015 Mar. 19.01392 TT                                 MPCW
q   3.0876034            (2000.0)            P               Q
z  -0.0004739      Peri.  209.85650     -0.91499391     +0.27013777
 +/-0.0000023      Node   338.13037     +0.20397275     -0.33115325
e   1.0014632      Incl.   53.56539     -0.34811098     -0.90408136
From 122 observations 2014 Nov. 20-2015 July 20, mean residual 0".5.

・ 星図

・ 光度変化

        m1 = 11.0 + 5 logΔ + 10.0 log r(t + 100)

---------------------------------------------------------------------

軌道要素はM.P.E.C. 2015-Q71に掲載されたものです。
星図はステラナビゲータ Ver.8 (アストロアーツ) で作成したものです。
光度グラフはComet for Windowsで作成したものです。

---------------------------------------------------------------------

Copyright(C) Seiichi Yoshida (comet@aerith.net). All rights reserved.